DW8248 Weather Reports


time (UTC)temp
F
wind
direction
speed
knots
gust
knots
rain 1hr
in
rain 24hr
in
rain mn
in
humidity
%
barometer
mb
20200407043300 73 108 3.5 10.4 0.00 0.01 0.00 77 1018.9
20200407042226 73 76 4.3 10.4 0.00 0.01 0.00 77 1018.7
20200407041245 73 80 3.5 9.6 0.00 0.01 0.00 76 1018.8
20200407040218 73 105 4.3 10.4 0.00 0.01 0.00 76 1018.6
20200407035232 73 87 3.5 10.4 0.00 0.01 0.01 76 1018.7
20200407034242 73 121 3.5 10.4 0.00 0.01 0.01 75 1018.7
20200407033225 73 123 3.5 9.6 0.00 0.01 0.01 75 1018.8
20200407032200 73 105 2.6 8.7 0.00 0.01 0.01 75 1019.0
20200407031158 73 111 3.5 10.4 0.00 0.03 0.01 75 1019.0
20200407030207 73 127 4.3 10.4 0.00 0.05 0.01 74 1019.0
20200407025137 73 105 3.5 8.7 0.00 0.06 0.01 74 1019.1
20200407024104 73 90 4.3 10.4 0.00 0.07 0.01 74 1018.9
20200407023102 73 119 4.3 10.4 0.00 0.07 0.01 73 1018.8
20200407022100 73 126 4.3 10.4 0.00 0.07 0.01 72 1018.8
20200407021024 73 109 5.2 11.3 0.00 0.07 0.01 73 1018.8
20200407015955 73 95 4.3 13.0 0.00 0.07 0.01 72 1018.7
20200407015016 73 90 5.2 13.0 0.00 0.07 0.01 71 1018.6
20200407014003 73 65 5.2 11.3 0.00 0.07 0.01 72 1018.3
20200407012941 73 38 5.2 11.3 0.00 0.07 0.01 72 1018.3
20200407011933 73 94 5.2 9.6 0.00 0.09 0.01 73 1017.9
20200407010916 73 98 5.2 10.4 0.00 0.10 0.01 72 1017.9
20200407005931 73 94 4.3 13.0 0.00 0.10 0.01 72 1018.0
20200407004904 73 76 6.1 13.0 0.00 0.11 0.01 70 1018.0
20200407003857 73 72 4.3 11.3 0.00 0.13 0.01 71 1017.9
20200407002914 74 65 4.3 10.4 0.00 0.15 0.01 71 1017.9
20200407001935 74 115 4.3 11.3 0.00 0.16 0.01 70 1018.0
20200407000939 74 98 6.1 11.3 0.00 0.18 0.01 70 1018.0
20200406235909 74 62 4.3 11.3 0.00 0.21 0.01 70 1018.1
20200406234926 74 96 4.3 11.3 0.00 0.21 0.01 70 1018.2
20200406233924 74 86 4.3 12.2 0.00 0.23 0.01 68 1018.1
20200406232932 74 67 6.1 12.2 0.00 0.25 0.01 70 1018.0
20200406231915 74 73 5.2 10.4 0.00 0.26 0.01 70 1018.0
20200406230904 74 105 5.2 12.2 0.00 0.27 0.01 70 1017.8
20200406225855 74 93 5.2 12.2 0.00 0.29 0.01 69 1017.8
20200406224849 74 85 4.3 11.3 0.00 0.30 0.01 69 1017.8
20200406223905 74 126 6.1 11.3 0.00 0.32 0.01 68 1017.7
20200406222842 74 77 4.3 10.4 0.00 0.35 0.01 68 1017.8
20200406221856 74 93 5.2 11.3 0.00 0.39 0.01 68 1017.9
20200406220834 74 121 5.2 13.9 0.00 0.44 0.01 69 1017.7
20200406215856 74 66 6.1 13.9 0.00 0.49 0.01 69 1017.5
20200406214837 74 70 6.1 12.2 0.00 0.49 0.01 70 1017.5
20200406213801 74 103 4.3 10.4 0.00 0.50 0.01 70 1017.7
20200406212759 74 88 4.3 10.4 0.00 0.52 0.01 71 1017.4
20200406211733 75 106 5.2 13.0 0.00 0.53 0.01 71 1017.4
20200406210702 75 91 6.1 13.0 0.00 0.56 0.01 71 1017.5
20200406205706 75 117 5.2 13.0 0.00 0.68 0.01 70 1017.4
20200406204711 75 102 5.2 13.0 0.00 0.75 0.01 71 1017.4
20200406203652 76 85 5.2 12.2 0.00 0.80 0.01 71 1017.5
20200406202654 76 59 6.1 12.2 0.00 0.84 0.01 70 1017.3
20200406201625 76 101 6.1 13.0 0.00 0.88 0.01 69 1017.2
20200406200559 76 100 7.0 13.0 0.00 0.91 0.01 67 1017.3
20200406195557 75 78 6.1 12.2 0.00 0.92 0.01 70 1017.5
20200406194557 75 83 6.1 12.2 0.00 0.93 0.01 71 1017.7
20200406193559 75 101 5.2 12.2 0.00 0.97 0.01 71 1017.7
20200406192534 76 123 5.2 9.6 0.00 0.97 0.01 73 1017.8
20200406191555 76 92 5.2 12.2 0.00 0.97 0.01 72 1017.8
20200406190554 76 89 5.2 12.2 0.00 0.98 0.01 72 1017.9
20200406185546 76 96 5.2 11.3 0.00 1.02 0.01 72 1017.8
20200406184527 76 64 5.2 11.3 0.00 1.04 0.01 71 1018.0
20200406183457 76 113 5.2 11.3 0.00 1.04 0.01 70 1018.1
20200406182423 76 136 5.2 11.3 0.00 1.04 0.01 71 1018.1
20200406181401 75 96 6.1 11.3 0.00 1.04 0.01 70 1018.3
20200406180401 76 111 6.1 13.9 0.00 1.04 0.01 70 1018.3
20200406175405 76 74 5.2 13.9 0.00 1.04 0.01 71 1018.4
20200406174358 75 113 6.1 13.0 0.00 1.04 0.01 69 1018.3
20200406173356 75 70 6.1 12.2 0.00 1.04 0.01 69 1018.4
20200406172343 75 63 6.1 13.0 0.00 1.04 0.01 70 1018.7
20200406171345 75 115 5.2 13.9 0.00 1.04 0.01 71 1018.7
20200406170349 75 82 7.0 13.9 0.00 1.04 0.01 71 1018.9
20200406165324 75 80 7.0 13.9 0.00 1.04 0.01 71 1018.9
20200406164247 75 85 6.1 13.0 0.00 1.04 0.01 72 1018.9
20200406163251 74 108 6.1 13.0 0.00 1.04 0.01 73 1018.9
20200406162231 74 137 6.1 13.0 0.00 1.04 0.01 72 1019.0
20200406161241 74 80 6.1 14.8 0.00 1.04 0.01 72 1019.1
20200406160250 74 119 6.1 14.8 0.00 1.04 0.01 72 1019.2
20200406155217 74 90 6.1 13.0 0.00 1.04 0.01 73 1019.1
20200406154201 74 79 6.1 13.9 0.00 1.04 0.01 73 1018.9
20200406153216 74 111 6.1 13.9 0.00 1.04 0.01 74 1019.0
20200406152144 74 119 7.0 13.9 0.00 1.04 0.01 72 1019.1
20200406151151 74 94 6.1 13.0 0.00 1.04 0.01 71 1019.0
20200406150126 74 59 6.1 12.2 0.00 1.04 0.01 73 1018.9
20200406145116 73 105 5.2 14.8 0.00 1.04 0.01 77 1018.8
20200406144117 73 89 7.8 14.8 0.00 1.04 0.01 77 1018.7
20200406143103 73 73 6.1 14.8 0.00 1.04 0.01 76 1018.8
20200406142032 73 106 7.0 14.8 0.00 1.04 0.01 76 1018.5
20200406141047 74 115 6.1 12.2 0.00 1.04 0.01 75 1018.6
20200406140050 73 101 6.1 12.2 0.00 1.04 0.01 74 1018.7
20200406135102 73 98 6.1 13.9 0.00 1.04 0.01 72 1018.6
20200406134117 73 121 7.0 13.9 0.00 1.04 0.01 73 1018.4
20200406133122 73 59 6.1 12.2 0.00 1.04 0.01 75 1018.4
20200406132121 73 90 6.1 13.9 0.00 1.04 0.01 76 1018.3
20200406131102 73 72 6.1 13.9 0.00 1.04 0.01 75 1018.1
20200406130052 72 84 6.1 13.9 0.00 1.04 0.01 74 1018.0
20200406125015 72 40 7.0 13.0 0.00 1.04 0.01 76 1017.9
20200406124029 72 96 7.0 13.0 0.00 1.04 0.01 77 1017.9
20200406123031 72 92 6.1 13.9 0.00 1.04 0.01 78 1017.8
20200406122034 72 98 7.0 13.9 0.00 1.04 0.01 77 1017.7
20200406121047 72 84 5.2 11.3 0.00 1.04 0.01 77 1017.5
20200406120020 72 104 5.2 11.3 0.00 1.04 0.01 77 1017.4
20200406115014 72 84 5.2 12.2 0.00 1.04 0.01 76 1017.2
20200406113939 72 117 6.1 12.2 0.00 1.04 0.01 76 1016.9
20200406112928 71 71 5.2 11.3 0.00 1.04 0.01 76 1016.9
20200406111935 71 111 5.2 12.2 0.00 1.04 0.01 77 1016.7
20200406110918 71 82 5.2 12.2 0.00 1.04 0.01 76 1016.6
20200406105918 71 66 6.1 12.2 0.00 1.04 0.01 75 1016.4
20200406104842 71 34 5.2 10.4 0.00 1.04 0.01 77 1016.4
20200406103858 71 109 6.1 10.4 0.00 1.04 0.01 81 1016.3
20200406102842 70 67 4.3 9.6 0.00 1.04 0.01 82 1016.2
20200406101855 70 79 3.5 10.4 0.00 1.04 0.01 84 1016.2
20200406100911 70 76 4.3 11.3 0.00 1.04 0.01 84 1016.0
20200406095925 70 73 5.2 11.3 0.00 1.04 0.01 84 1016.1
20200406094921 70 89 5.2 12.2 0.00 1.04 0.01 83 1016.2
20200406093937 70 67 4.3 12.2 0.00 1.04 0.01 81 1016.2
20200406092913 70 69 5.2 11.3 0.00 1.04 0.01 81 1016.0
20200406090906 70 71 4.3 13.9 0.00 1.04 0.01 83 1015.9
20200406085922 70 91 6.1 13.9 0.00 1.04 0.01 83 1016.0
20200406084939 70 82 6.1 13.9 0.00 1.04 0.01 83 1015.7
20200406083947 70 110 7.0 13.0 0.00 1.04 0.01 83 1015.6
20200406082918 70 88 6.1 11.3 0.00 1.04 0.01 83 1015.5
20200406081938 70 92 6.1 13.0 0.00 1.04 0.01 84 1015.7
20200406080911 70 102 6.1 13.9 0.00 1.04 0.01 83 1015.7
20200406075848 70 107 6.1 13.9 0.00 1.04 0.01 84 1015.9
20200406074820 70 103 7.0 12.2 0.00 1.04 0.01 85 1015.9
20200406073759 70 115 5.2 11.3 0.00 1.04 0.01 85 1015.9
20200406072724 70 67 5.2 11.3 0.00 1.04 0.01 85 1015.9
20200406071710 70 127 5.2 11.3 0.00 1.04 0.01 82 1015.9
20200406070718 70 124 5.2 12.2 0.00 1.04 0.01 81 1016.0
20200406065709 70 92 5.2 12.2 0.00 1.04 0.01 80 1016.2
20200406064645 70 112 5.2 11.3 0.00 1.04 0.01 80 1016.4
20200406063700 70 104 6.1 12.2 0.00 1.04 0.01 80 1016.4
20200406062637 70 115 6.1 13.0 0.00 1.04 0.01 81 1016.3
20200406061608 69 133 7.8 13.9 0.00 1.04 0.01 84 1016.3
20200406060623 69 97 7.8 14.8 0.00 1.04 0.01 85 1016.4
20200406055558 69 97 8.7 15.6 0.00 1.04 0.01 85 1016.5
20200406054604 70 109 8.7 15.6 0.00 1.04 0.01 84 1016.5
20200406053559 70 113 7.0 13.9 0.00 1.04 0.01 82 1016.5
20200406052524 69 111 6.1 12.2 0.00 1.04 0.01 86 1016.6
20200406051504 68 123 6.1 12.2 0.00 1.04 0.01 89 1016.7
20200406050443 68 105 5.2 15.6 0.00 1.04 0.01 91 1016.9
20200406045411 68 105 6.1 15.6 0.00 1.04 0.01 92 1017.0
20200406044336 67 86 5.2 11.3 0.00 1.03 0.00 93 1017.2